RH
49 46 46 45 45 45 43 44 43 41 42 43 41 37 33 32 31 32 31 31 32 32 34 35 36 34 32 29 28 28 28 27 24 25 24 24 25 25 24 24 25 26 27
50 50 51 50 48 46 44 44 45 43 42 43 46 45 42 38 38 40 38 36 35 33 32 32 32 34 36 37 36 32 30 28 25 26 28 30 28 27 26 26 26 26 27
43 49 50 51 50 48 48 48 48 49 49 47 46 44 44 44 44 47 48 46 44 40 38 36 35 33 33 35 35 37 38 35 32 29 28 28 29 29 29 29 28 28 28
39 38 41 44 45 47 48 48 47 45 45 47 45 44 44 43 44 43 43 43 43 48 48 48 46 40 36 36 38 36 37 39 37 35 33 32 33 32 31 30 29 30 29
43 46 44 42 41 42 43 44 44 43 43 43 45 45 41 38 38 39 38 39 40 40 40 41 41 41 40 37 37 41 40 41 41 41 40 39 37 35 36 34 33 33 33
44 43 44 45 44 44 44 43 42 42 44 45 46 47 47 46 40 36 36 35 34 34 35 37 38 39 38 37 35 35 39 39 42 44 44 43 43 42 40 39 39 42 43
58 57 51 45 44 42 42 41 40 39 39 39 39 39 39 40 41 41 40 38 36 37 37 38 37 36 36 35 34 34 34 35 34 35 36 37 38 41 42 43 44 43 43
51 54 56 56 54 52 49 47 44 42 41 41 39 37 36 34 34 35 36 38 37 36 37 37 37 36 35 34 34 33 32 32 32 31 31 32 32 32 32 33 35 38 41
57 55 52 52 52 52 50 50 49 48 47 45 43 42 42 41 41 40 41 41 41 40 40 41 40 41 41 41 39 38 34 30 30 31 29 28 30 31 31 29 30 28 32
54 53 52 53 54 54 54 54 53 50 48 47 45 43 42 40 39 39 39 40 40 40 41 44 47 50 51 51 51 51 49 47 44 42 40 35 32 30 31 32 30 30 30
58 51 48 46 45 46 46 47 48 50 49 48 45 44 43 42 41 40 40 38 37 37 37 37 36 37 38 39 40 41 42 44 46 48 49 50 48 46 44 44 44 42 39
87 83 76 64 55 49 45 43 42 42 42 41 40 40 39 37 36 36 36 35 34 34 34 33 33 33 33 33 33 34 35 36 37 37 37 39 41 43 43 43 44 47 47
100 97 93 91 86 80 74 70 66 60 56 54 55 56 57 58 60 61 62 61 62 62 61 61 60 58 56 56 55 54 51 49 49 48 45 41 37 36 35 35 35 35 37
91 93 94 94 92 89 87 86 86 86 85 84 81 79 78 78 77 75 74 74 73 71 69 67 66 64 61 58 55 52 52 53 54 55 57 58 57 53 52 52 47 42 39
68 68 70 74 79 82 84 85 84 82 80 80 79 78 77 76 74 74 74 73 72 69 65 62 58 57 54 52 51 53 57 60 58 58 58 57 58 57 53 47 48 53 55
69 71 73 73 72 69 67 65 67 69 70 72 73 73 74 76 77 78 79 78 78 76 75 74 75 74 71 69 63 58 52 51 50 50 52 56 63 68 69 69 62 52 51
56 55 54 52 51 50 50 50 50 49 49 48 47 48 49 51 53 54 56 58 58 58 59 59 59 60 60 59 56 55 51 54 53 47 44 44 44 44 46 48 51 56 56
56 52 50 49 47 46 47 47 46 46 45 44 44 42 40 39 38 38 38 38 39 40 41 41 41 42 44 43 41 40 39 40 40 40 40 39 38 37 36 38 40 40 40
69 65 62 59 56 53 50 49 47 42 36 30 26 24 23 22 22 21 21 21 21 22 23 26 28 29 30 30 30 29 30 31 32 31 29 30 31 33 31 29 29 28 28
62 59 51 40 30 25 22 21 20 19 18 18 18 17 16 16 15 15 14 14 13 13 13 13 13 14 15 15 15 15 14 15 16 16 16 16 15 16 17 16 16 16 16
36 34 32 30 28 25 23 21 20 17 16 14 14 13 12 12 11 11 11 10 10 10 10 10 10 10 10 11 11 10 10 10 12 12 12 11 11 13 14 14 14 13 14
33 28 25 23 21 18 16 15 12 11 10 10 9 9 8 8 8 7 7 7 7 7 7 7 7 7 7 7 7 7 8 8 8 10 11 12 12 12 13 13 12 13 13
28 22 16 13 11 11 10 10 9 8 8 8 7 6 6 6 6 6 6 6 6 6 6 6 6 6 6 6 6 6 6 6 6 6 7 7 8 9 9 10 11 11 12
15 14 13 11 10 9 8 7 7 7 7 6 6 6 6 6 6 5 5 5 5 5 5 5 5 5 5 5 5 5 5 5 6 6 6 6 6 7 7 8 8 8 9
12 11 10 9 8 8 8 7 8 8 7 7 6 6 6 5 5 5 5 5 5 5 5 5 5 5 5 5 5 5 4 4 4 5 5 5 6 6 6 6 6 6 7
10 10 10 9 9 8 7 6 6 6 6 6 5 5 5 5 5 5 5 4 4 4 4 4 4 4 4 4 4 5 5 5 5 5 5 5 5 5 5 5 5 6 6
Wind_Speed
53 53 52 52 51 50 49 48 48 48 47 47 47 47 48 47 47 46 46 46 46 46 45 45 44 42 43 42 41 42 42 42 40 39 39 38 38 39 38 38 38 39 39
58 57 57 57 56 55 54 53 53 53 53 52 52 52 52 52 51 52 52 52 53 53 52 52 51 50 48 47 47 47 48 48 46 45 44 44 44 44 43 43 42 42 42
63 62 62 61 61 60 60 59 58 58 58 58 58 59 58 57 57 56 56 57 57 57 57 58 58 57 56 55 55 54 54 54 54 53 52 52 52 51 50 49 49 48 47
66 67 67 67 66 66 66 65 65 65 65 64 64 64 64 64 64 64 64 64 62 62 62 63 64 64 64 63 62 62 61 60 61 60 60 58 58 57 59 58 56 55 55
69 69 70 70 71 71 71 72 72 71 71 71 71 71 71 71 70 71 71 70 69 69 69 70 70 71 71 71 69 68 67 66 66 66 66 65 65 64 64 65 64 63 62
73 74 75 75 75 75 76 76 77 77 77 77 78 77 77 77 78 78 79 78 77 77 77 77 78 78 78 78 77 76 75 74 73 73 72 72 71 71 71 70 70 69 68
78 78 79 80 80 81 81 82 82 83 83 83 84 84 84 84 84 84 85 85 85 84 84 84 84 85 86 86 85 84 83 83 82 81 81 80 79 79 78 76 77 76 75
82 83 84 84 85 86 86 87 87 87 88 89 89 90 90 90 90 90 90 91 91 90 90 90 91 91 91 92 92 91 91 90 90 89 88 88 87 87 87 84 84 82 83
86 87 88 89 90 91 92 92 93 93 94 94 94 95 95 95 96 96 96 96 96 96 96 96 97 97 97 97 97 97 97 96 95 95 95 94 95 94 94 93 92 90 89
89 90 92 93 94 95 96 97 97 98 99 99 100 100 100 101 101 101 102 102 102 102 101 101 100 100 100 101 101 102 102 102 102 102 102 101 100 100 99 99 98 97 94
92 93 95 96 97 98 99 101 102 103 104 105 106 106 107 107 107 107 108 108 108 108 108 108 108 108 107 107 107 107 107 107 107 107 106 105 106 106 105 105 104 104 103
94 95 96 97 98 99 101 102 104 105 106 107 108 108 108 108 109 109 110 110 110 110 110 110 110 110 109 109 109 110 110 111 112 113 113 112 112 111 112 111 109 108 110
97 99 100 101 103 104 105 106 107 108 109 110 111 112 113 114 115 115 116 116 117 117 118 118 119 119 119 118 117 116 115 115 115 115 115 115 115 114 114 115 115 115 115
100 102 103 104 106 108 110 111 112 113 115 116 117 118 119 120 121 122 123 123 124 125 125 126 126 126 126 127 126 125 124 124 124 123 123 123 123 122 120 119 119 119 118
106 108 109 111 112 114 115 117 118 119 121 122 123 125 126 127 128 129 130 131 132 132 133 133 134 134 133 133 132 130 129 129 129 129 128 128 128 128 128 128 127 125 124
108 109 111 113 115 117 119 120 122 123 123 125 126 128 129 130 131 132 133 133 134 134 135 135 136 136 136 137 137 136 135 134 134 134 134 132 131 131 131 130 130 129 128
115 117 119 121 122 124 125 127 128 129 130 132 134 136 137 138 139 140 141 142 142 143 143 144 144 144 146 147 147 146 144 144 145 144 143 142 141 140 140 139 137 136 137
120 122 124 126 128 129 131 133 136 137 139 140 142 144 145 146 147 148 149 150 151 152 153 154 154 154 155 156 156 155 154 153 153 153 154 154 152 151 150 149 147 146 146
131 132 134 136 139 141 142 143 145 146 146 147 148 149 150 150 151 152 153 154 155 157 158 159 161 162 162 163 164 164 163 163 163 162 161 161 161 161 160 158 155 154 153
140 140 139 140 141 142 142 143 145 145 145 145 146 147 147 148 148 149 150 151 152 153 154 155 156 157 158 161 161 162 161 160 160 160 160 160 159 158 158 158 156 154 152
138 139 140 142 142 140 139 140 139 137 136 136 136 137 138 139 140 141 142 143 144 145 146 147 148 149 149 150 152 154 154 153 152 154 155 156 156 157 158 158 157 155 154
134 132 132 132 131 129 128 128 128 128 127 127 127 127 127 127 128 129 131 131 132 133 134 135 136 138 139 141 142 143 144 145 143 144 147 149 151 151 152 154 154 154 153
125 125 124 123 123 121 120 120 120 120 119 120 119 118 118 118 119 119 120 121 122 124 126 126 127 128 130 131 132 133 134 135 135 133 134 137 138 140 141 142 143 144 143
118 118 118 117 117 114 113 112 111 110 110 110 110 109 108 108 108 108 109 110 111 112 113 114 115 116 118 120 122 124 125 126 126 127 127 128 130 131 131 133 134 134 135
109 108 107 107 106 105 104 103 101 101 103 103 103 103 102 102 102 102 103 103 104 104 105 106 106 107 109 112 113 114 115 115 116 117 117 118 119 121 123 124 126 127 127
97 97 97 96 96 96 97 95 93 94 94 95 94 94 93 94 94 94 95 95 95 96 97 98 98 100 100 103 105 106 108 109 110 110 110 108 109 110 113 114 115 116 118
Wind_Direction
237 239 240 241 241 241 242 243 243 242 244 245 245 244 245 245 245 247 250 251 251 251 252 252 252 251 253 253 253 251 250 249 249 251 252 254 255 255 256 257 258 258 260
239 239 241 242 244 245 246 246 247 248 247 247 248 249 249 248 248 249 250 251 251 253 253 254 254 255 255 256 256 257 257 256 253 251 251 252 253 254 256 258 260 262 262
241 241 242 243 245 246 247 248 249 250 250 250 250 251 252 252 252 253 254 254 255 256 256 256 256 257 256 257 258 258 258 259 260 258 257 256 256 257 257 258 258 260 261
243 244 245 246 247 247 248 249 250 250 252 253 254 254 254 253 254 254 254 254 255 256 257 258 258 257 257 257 258 258 258 259 261 260 260 260 261 263 265 263 262 262 262
248 248 248 249 249 251 251 252 252 253 254 254 255 256 257 257 257 257 256 256 256 256 258 258 259 259 258 258 257 258 258 258 259 260 261 260 261 261 261 264 266 266 267
249 250 251 252 252 253 253 254 255 255 256 256 256 257 257 258 259 259 260 260 259 258 258 259 260 261 260 260 260 259 260 260 259 260 260 261 261 261 261 262 264 264 265
252 252 253 254 254 255 255 256 256 257 257 258 258 259 259 259 260 260 261 261 261 260 260 260 260 261 261 262 262 262 261 261 261 261 261 261 261 262 262 262 262 264 265
255 256 256 257 257 257 257 257 258 258 259 259 260 260 260 261 261 261 262 262 263 263 263 263 262 262 262 263 263 262 262 262 262 261 261 262 263 263 263 262 262 262 263
256 257 258 258 259 259 260 260 261 261 261 261 262 263 263 264 264 264 264 265 264 264 263 263 263 263 263 264 264 265 265 264 263 263 263 262 262 262 263 263 263 263 263
257 258 258 259 260 260 261 262 262 263 263 264 264 265 265 266 266 266 266 265 265 264 263 263 263 263 263 264 264 264 264 264 264 264 264 264 264 263 264 264 264 264 264
257 259 260 261 261 262 262 263 263 264 265 265 266 266 266 266 266 266 266 265 265 264 264 264 263 263 262 262 263 263 263 263 263 263 263 262 263 262 262 263 263 264 264
260 261 261 261 262 263 263 263 264 265 265 265 266 266 266 266 266 267 267 267 267 267 267 267 266 265 264 264 263 263 263 263 264 264 264 263 263 263 262 262 262 262 263
262 263 263 263 264 264 264 264 264 265 265 265 266 266 266 267 267 267 267 267 267 267 267 267 268 268 267 266 265 265 264 264 264 265 265 264 263 263 263 263 263 262 262
261 262 263 264 264 265 265 265 265 265 265 265 266 266 266 267 267 267 268 268 268 268 268 268 268 268 268 268 268 267 266 265 264 264 264 264 264 263 262 262 263 263 263
263 263 263 264 264 264 264 265 265 266 266 266 267 267 267 267 267 267 267 267 267 267 267 267 267 267 266 265 264 264 265 265 265 265 264 264 264 264 264 263 261 261 261
265 265 265 265 265 265 265 265 265 265 266 266 267 267 266 266 266 266 266 266 266 266 266 266 266 266 266 266 266 266 265 264 263 262 262 261 261 261 262 263 263 263 262
267 267 267 268 268 268 268 268 268 268 268 267 267 267 267 266 266 266 266 266 266 265 265 265 265 265 265 265 265 265 264 264 265 264 263 262 262 261 261 260 260 261 262
271 271 271 271 271 271 271 271 271 270 270 270 269 268 267 267 266 266 266 265 265 265 265 265 265 265 265 265 265 264 264 264 264 264 264 264 264 263 262 262 262 261 261
273 273 274 274 274 273 273 272 272 272 271 270 270 269 269 268 268 267 266 266 265 265 264 264 265 265 265 265 265 264 264 264 264 265 265 264 264 264 264 263 262 262 262
276 276 276 275 275 274 274 274 273 273 273 273 272 271 270 270 269 268 268 267 266 265 265 264 264 264 263 264 264 263 263 263 263 264 263 264 264 264 264 264 265 265 264
276 276 275 275 276 276 276 276 275 274 273 273 272 271 270 270 269 269 268 268 267 266 266 266 266 265 264 264 263 263 263 262 261 262 263 262 262 262 262 263 263 263 262
278 278 278 278 277 277 276 276 276 276 276 275 274 273 272 271 270 269 269 268 268 267 266 265 265 265 264 264 263 263 263 262 261 261 261 261 261 260 261 262 261 261 261
280 279 279 279 279 279 279 278 278 277 277 276 275 274 273 272 272 271 270 269 268 267 267 266 265 265 264 263 263 262 262 262 262 261 261 261 261 261 260 260 260 260 260
281 281 281 281 281 281 280 279 279 279 278 277 277 276 275 274 273 272 271 269 269 268 267 267 266 265 265 264 264 263 262 261 261 261 260 260 260 260 259 260 259 259 259
282 282 282 282 282 282 281 280 280 279 278 278 277 277 276 275 274 273 272 271 270 269 268 267 266 264 264 263 263 263 263 262 261 260 259 259 259 259 259 259 259 259 259
283 283 283 284 284 283 282 283 282 281 280 279 279 278 277 276 275 274 274 272 271 271 270 268 267 266 265 264 263 262 261 261 261 260 260 258 257 257 258 257 257 257 258